Weather reports worldwide

Advertisment
Europlatform, Netherlands (6321): temperature & dewpoint: 09.12.2019 00:00:00 - 15.12.2019 00:00:00 (CET)Europlatform, Netherlands (6321): water temperature: 09.12.2019 00:00:00 - 15.12.2019 00:00:00 (CET)Europlatform, Netherlands (6321): wind speed & gusts: 09.12.2019 00:00:00 - 15.12.2019 00:00:00 (CET)Europlatform, Netherlands (6321): wind direction: 09.12.2019 00:00:00 - 15.12.2019 00:00:00 (CET)Europlatform, Netherlands (6321): reduced air pressure: 09.12.2019 00:00:00 - 15.12.2019 00:00:00 (CET)Europlatform, Netherlands (6321): visibility: 09.12.2019 00:00:00 - 15.12.2019 00:00:00 (CET)
Date & Time tt [°C] td [°C] tw [°C] ff [km/h] ff [kn] fx [km/h] fx [kn] dd ppp [hPa] vv [km]
15.12.2019 00:00:00 7,9 5,1 7,0 48 26 54 29 S 991,6 10
14.12.2019 23:00:00 8,0 4,4 7,0 46 25 54 29 S 993,4 10
14.12.2019 22:00:00 9,4 3,9 7,0 46 25 54 29 SSW 994,6 10
14.12.2019 21:00:00 9,0 1,7 7,0 52 28 61 33 SW 995,4 10
14.12.2019 20:00:00 8,8 1,4 7,0 59 32 68 37 WSW 995,9 10
14.12.2019 19:00:00 8,4 0,5 7,0 65 35 72 39 WSW 995,3 10
14.12.2019 18:00:00 8,1 0,0 7,0 68 37 76 41 WSW 994,8 10
14.12.2019 17:00:00 8,0 1,1 7,0 70 38 83 45 WSW 993,5 10
14.12.2019 16:00:00 7,9 3,1 7,0 67 36 76 41 W 991,8 10
14.12.2019 15:00:00 6,9 5,0 7,0 48 26 61 33 W 989,9 10
14.12.2019 14:00:00 6,6 5,1 7,3 42 23 76 41 WSW 988,1 4,8
14.12.2019 13:00:00 9,2 3,7 7,0 57 31 68 37 SW 989,4 10
14.12.2019 12:00:00 8,7 2,8 7,0 59 32 72 39 WSW 989,6 10
14.12.2019 11:00:00 8,3 0,8 7,0 67 36 76 41 WSW 989,4 10
14.12.2019 10:00:00 7,8 1,7 7,0 74 40 79 43 WSW 988,4 10
14.12.2019 09:00:00 7,9 2,9 7,0 74 40 79 43 W 987,1 10
14.12.2019 08:00:00 7,8 3,5 7,0 68 37 76 41 WSW 985,8 10
14.12.2019 07:00:00 8,0 3,8 7,0 59 32 65 35 WSW 984,5 10
14.12.2019 06:00:00 8,0 3,8 8,0 55 30 61 33 WSW 983,4 10
14.12.2019 05:00:00 8,0 3,0 8,0 46 25 50 27 WSW 982,2 10
14.12.2019 04:00:00 7,3 4,1 7,5 37 20 40 21 WSW 981,0 10
14.12.2019 03:00:00 7,2 1,5 7,5 35 19 47 25 W 980,5 10
14.12.2019 02:00:00 8,2 2,2 7,0 42 23 50 27 SW 980,5 10
14.12.2019 01:00:00 8,9 2,6 7,0 46 25 54 29 SW 980,8 10
14.12.2019 00:00:00 8,5 2,1 7,0 50 27 58 31 SW 981,8 10
13.12.2019 23:00:00 8,3 2,3 7,0 46 25 54 29 SW 982,2 10
13.12.2019 22:00:00 8,6 2,5 7,0 54 29 65 35 SW 982,7 10
13.12.2019 21:00:00 9,0 3,6 7,0 55 30 61 33 SW 983,5 10
13.12.2019 20:00:00 9,1 2,7 7,0 50 27 68 37 SW 983,2 21
13.12.2019 19:00:00 9,2 3,1 8,0 55 30 65 35 WSW 983,4 10
13.12.2019 18:00:00 9,2 3,4 8,0 50 27 58 31 W 983,0 10
13.12.2019 17:00:00 8,9 4,1 8,0 54 29 61 33 W 982,4 10
13.12.2019 16:00:00 8,8 4,0 8,0 55 30 61 33 W 981,2 10
13.12.2019 15:00:00 8,6 5,0 8,0 52 28 54 29 W 980,1 10
13.12.2019 14:00:00 8,4 5,3 8,0 50 27 58 31 W 978,9 10
13.12.2019 13:00:00 8,2 5,0 8,0 55 30 58 31 WNW 977,9 10
13.12.2019 12:00:00 8,5 5,3 7,6 50 27 58 31 NW 976,5 10
13.12.2019 11:00:00 6,7 5,9 7,6 0 0 7 4 N 975,3 6
13.12.2019 10:00:00 6,4 5,3 8,0 8 4 14 8 E 973,8 8
13.12.2019 09:00:00 6,3 5,1 8,0 16 9 22 12 E 972,4 10
13.12.2019 08:00:00 6,6 5,3 7,6 21 11 25 14 ESE 971,1 10
13.12.2019 07:00:00 6,8 5,4 8,0 26 14 32 18 SE 970,5 10
13.12.2019 06:00:00 6,9 5,4 8,0 35 19 43 23 SE 970,2 10
13.12.2019 05:00:00 6,8 5,7 8,0 42 23 54 29 SSE 970,6 10
13.12.2019 04:00:00 6,8 5,8 8,0 50 27 58 31 SSE 971,4 10
13.12.2019 03:00:00 6,7 5,6 8,0 54 29 61 33 SSE 972,4 7
13.12.2019 02:00:00 6,9 5,8 7,6 47 25 65 35 SSE 973,2 14
13.12.2019 01:00:00 7,1 6,6 8,0 65 35 76 41 SSE 973,7 3,2
13.12.2019 00:00:00 7,1 6,3 8,0 74 40 86 47 SSE 974,8 5
12.12.2019 23:00:00 6,1 5,0 8,0 81 44 90 49 SSE 975,4 3,7
12.12.2019 22:00:00 6,7 4,8 8,0 70 38 79 43 SSE 977,9 5
12.12.2019 21:00:00 6,4 4,6 8,0 67 36 76 41 SSE 980,1 6
12.12.2019 20:00:00 6,3 4,6 7,7 68 37 76 41 SSE 982,5 10
12.12.2019 19:00:00 6,0 4,3 8,0 68 37 76 41 SSE 984,2 10
12.12.2019 18:00:00 6,2 4,1 8,0 67 36 76 41 SSE 986,1 10
12.12.2019 17:00:00 6,3 3,9 8,0 70 38 76 41 SSE 987,5 10
12.12.2019 16:00:00 5,9 3,7 8,0 65 35 72 39 SSE 989,1 10
12.12.2019 15:00:00 6,1 3,2 8,0 57 31 61 33 SSE 991,1 10
12.12.2019 14:00:00 6,2 3,0 8,0 55 30 58 31 SSE 992,9 10
12.12.2019 13:00:00 6,2 3,6 8,0 50 27 54 29 S 994,8 10
12.12.2019 12:00:00 6,1 3,7 8,0 44 24 47 25 S 996,4 10
12.12.2019 11:00:00 6,2 3,2 8,0 48 26 50 27 S 998,1 10
12.12.2019 10:00:00 7,4 1,4 8,0 34 18 40 21 S 999,0 10
12.12.2019 09:00:00 7,1 1,7 8,0 31 17 36 19 SSW 999,8 10
12.12.2019 08:00:00 6,9 1,3 8,0 29 16 32 18 SW 1000,2 10
12.12.2019 07:00:00 6,9 1,4 8,0 26 14 29 16 SW 1000,8 10
12.12.2019 06:00:00 6,7 0,5 8,0 28 15 32 18 WSW 1001,0 10
12.12.2019 05:00:00 6,7 1,8 8,0 28 15 36 19 WSW 1001,1 10
12.12.2019 04:00:00 6,5 2,3 8,0 31 17 40 21 W 1001,3 10
12.12.2019 03:00:00 6,6 2,4 8,0 35 19 43 23 W 1001,3 10
12.12.2019 02:00:00 6,9 2,1 8,0 34 18 40 21 W 1001,1 10
12.12.2019 01:00:00 7,6 2,8 8,0 42 23 43 23 W 1000,9 10
12.12.2019 00:00:00 8,2 2,8 8,0 35 19 47 25 WSW 1001,2 10
11.12.2019 23:00:00 7,6 5,1 7,8 46 25 50 27 S 1001,3 9
11.12.2019 22:00:00 7,6 4,9 8,0 44 24 47 25 S 1001,1 10
11.12.2019 21:00:00 7,7 4,4 8,0 39 21 54 29 S 1001,5 10
11.12.2019 20:00:00 8,2 5,0 8,0 39 21 50 27 S 1002,0 10
11.12.2019 19:00:00 8,3 5,3 8,0 41 22 43 23 S 1002,2 10
11.12.2019 18:00:00 8,1 5,1 8,0 42 23 43 23 S 1002,5 10
11.12.2019 17:00:00 8,2 4,4 8,0 39 21 40 21 S 1003,2 10
11.12.2019 16:00:00 9,0 3,8 8,0 31 17 36 19 SSW 1003,5 10
11.12.2019 15:00:00 8,8 3,2 8,0 29 16 36 19 SW 1004,0 10
11.12.2019 14:00:00 8,6 2,9 8,0 31 17 36 19 SSW 1004,4 10
11.12.2019 13:00:00 8,4 3,3 8,0 31 17 36 19 SSW 1005,3 10
11.12.2019 12:00:00 8,6 3,4 8,0 29 16 32 18 SSW 1006,1 10
11.12.2019 11:00:00 8,7 3,5 8,0 28 15 32 18 SW 1006,8 10
11.12.2019 10:00:00 8,6 3,3 8,0 22 12 25 14 SW 1007,4 10
11.12.2019 09:00:00 8,7 2,9 8,0 22 12 25 14 WSW 1007,4 10
11.12.2019 08:00:00 8,7 3,2 8,0 26 14 32 18 WSW 1007,6 10
11.12.2019 07:00:00 8,8 3,3 8,0 34 18 36 19 W 1007,8 10
11.12.2019 06:00:00 9,2 3,2 8,0 34 18 43 23 W 1007,8 10
11.12.2019 05:00:00 9,4 3,4 8,0 41 22 47 25 W 1007,7 10
11.12.2019 04:00:00 9,8 4,6 8,0 48 26 50 27 W 1007,9 10
11.12.2019 03:00:00 10,2 7,4 8,0 35 19 43 23 WSW 1007,7 10
11.12.2019 02:00:00 9,6 6,9 8,0 42 23 76 41 WSW 1007,4 9
11.12.2019 01:00:00 9,4 7,9 8,0 72 39 76 41 SSW 1007,0 7
11.12.2019 00:00:00 8,9 6,5 8,0 74 40 83 45 S 1006,5 10
10.12.2019 23:00:00 8,8 6,1 8,0 74 40 83 45 S 1006,5 10
10.12.2019 22:00:00 8,6 5,7 8,0 74 40 83 45 S 1007,0 10
10.12.2019 21:00:00 8,5 5,3 8,0 76 41 86 47 S 1008,0 10
10.12.2019 20:00:00 8,5 5,1 8,0 76 41 86 47 S 1008,3 10
10.12.2019 19:00:00 8,2 4,6 8,0 70 38 83 45 S 1009,6 10
10.12.2019 18:00:00 8,1 4,2 8,0 74 40 83 45 S 1010,8 10
10.12.2019 17:00:00 8,0 4,0 7,9 70 38 79 43 S 1011,9 10
10.12.2019 16:00:00 7,8 4,2 8,0 70 38 76 41 S 1013,6 9
10.12.2019 15:00:00 7,6 4,1 8,0 68 37 76 41 S 1015,0 10
10.12.2019 14:00:00 7,7 3,8 8,0 63 34 68 37 S 1016,3 10
10.12.2019 13:00:00 7,5 3,4 8,0 61 33 65 35 S 1018,1 10
10.12.2019 12:00:00 7,3 3,5 8,0 57 31 61 33 S 1019,8 10
10.12.2019 11:00:00 7,4 3,5 8,0 52 28 54 29 S 1021,1 10
10.12.2019 10:00:00 7,4 3,3 8,0 46 25 50 27 S 1021,9 10
10.12.2019 09:00:00 7,8 2,9 8,0 44 24 47 25 S 1022,5 10
10.12.2019 08:00:00 7,9 1,5 8,0 37 20 40 21 SSW 1023,2 10
10.12.2019 07:00:00 7,8 0,7 8,0 31 17 36 19 SSW 1023,3 10
10.12.2019 06:00:00 7,8 0,0 8,0 26 14 29 16 SW 1023,8 10
10.12.2019 05:00:00 7,8 0,0 8,0 21 11 25 14 SW 1024,0 10
10.12.2019 04:00:00 7,9 1,8 8,0 18 10 25 14 W 1024,3 10
10.12.2019 03:00:00 7,6 1,0 8,0 24 13 32 18 W 1023,9 10
10.12.2019 02:00:00 7,6 2,3 8,0 34 18 43 23 WNW 1023,4 10
10.12.2019 01:00:00 7,7 3,1 8,0 37 20 47 25 W 1023,0 10
10.12.2019 00:00:00 6,9 3,0 8,0 39 21 54 29 WNW 1022,6 10
09.12.2019 23:00:00 8,3 1,7 8,0 46 25 54 29 NW 1021,8 10
09.12.2019 22:00:00 8,3 2,4 8,0 52 28 61 33 NW 1020,6 10
09.12.2019 21:00:00 7,3 3,0 8,0 50 27 72 39 NW 1019,8 8
09.12.2019 20:00:00 8,6 2,1 8,0 59 32 68 37 NW 1017,9 10
09.12.2019 19:00:00 8,1 2,8 8,0 55 30 72 39 NW 1016,2 10
09.12.2019 18:00:00 8,4 4,0 8,0 68 37 79 43 NW 1014,3 10
09.12.2019 17:00:00 9,2 2,3 8,0 67 36 83 45 NW 1012,5 10
09.12.2019 16:00:00 9,2 2,6 8,0 72 39 83 45 NNW 1009,8 10
09.12.2019 15:00:00 8,9 4,2 8,1 68 37 90 49 NNW 1007,1 7
09.12.2019 14:00:00 7,0 4,3 8,0 78 42 97 53 NW 1004,3 10
09.12.2019 13:00:00 9,1 4,6 8,1 89 48 104 56 NW 1000,8 5
09.12.2019 12:00:00 8,7 6,0 8,0 74 40 94 51 W 998,2 2,9
09.12.2019 11:00:00 8,4 5,5 8,0 65 35 76 41 WNW 998,7 9
09.12.2019 10:00:00 8,7 5,5 8,0 55 30 61 33 WNW 997,3 10
09.12.2019 09:00:00 8,7 5,3 8,0 59 32 61 33 W 995,7 10
09.12.2019 08:00:00 8,6 5,2 8,0 48 26 58 31 WNW 993,9 10
09.12.2019 07:00:00 8,5 4,9 8,0 46 25 50 27 W 992,5 10
09.12.2019 06:00:00 8,7 5,3 8,0 48 26 50 27 W 991,1 9
09.12.2019 05:00:00 7,1 6,2 8,2 37 20 65 35 SSW 990,5 2,5
09.12.2019 04:00:00 7,3 6,2 8,2 48 26 68 37 S 990,8 1,7
09.12.2019 03:00:00 10,0 5,3 8,0 57 31 65 35 SW 991,9 10
09.12.2019 02:00:00 9,8 4,3 8,0 57 31 68 37 SW 993,3 10
09.12.2019 01:00:00 9,5 3,7 8,0 61 33 68 37 SW 994,3 10
09.12.2019 00:00:00 9,5 4,1 8,0 65 35 72 39 SW 995,0 10

tt = temperature
td = dewpoint
tw = water temperature
ff = wind speed
fx = gusts
dd = wind direction
ppp = reduced air pressure
vv = visibility

Next stations